Location: Belvedere Heights
(33.9836°N, 117.3109°W)
Time: 01:18:56
(UTC+00:00)

BlueWalker 3 - Visible Passes

Search period start: 05 March 2024 00:00
Search period end: 15 March 2024 00:00
Orbit: 485 x 499 km, 53.2° (Epoch: 04 March)

Date Brightness Start Highest point End Pass type
(mag) Time Alt. Az. Time Alt. Az. Time Alt. Az.
05 Mar 3.7 02:21:46 10° N 02:24:18 17° NNE 02:26:39 11° ENE visible
05 Mar 3.8 03:59:08 10° NW 04:01:09 29° WNW 04:01:09 29° WNW visible
06 Mar 2.3 03:35:11 10° NW 03:38:48 59° WSW 03:38:48 59° WSW visible
07 Mar 2.2 03:11:14 10° NW 03:14:57 63° SW 03:16:34 31° SSE visible
08 Mar 2.2 02:47:16 10° NW 02:51:00 66° SW 02:54:31 11° SE visible
09 Mar 2.2 02:23:16 10° NW 02:27:02 70° SW 02:30:45 10° SE visible
